Weather in Itomlya

Russia / Tver Oblast     56°29′48″N   34°07′45″E
temp.,
°C
wind,
m/s
gust,
m/s
humid.,
%
clouds,
%
prec.,
mm/h
press.,
hPa
HPBL,
m
12 may, wed
wed1200:00+9ese39835 0.0 1026163
03:00+9ese23950 0.0 102647
06:00+10ese269548 0.0 1026152
09:00+16ese35725 0.0 1026585
12:00+19ese47535 0.0 10241376
15:00+21e4750100 0.1 10221726
18:00+14ene31091100 2.1 1020429
21:00+14e5129099 3.4 1018842
13 may, thu
thu1300:00+13ese4119298 2.0 1017648
03:00+8sse389798 2.1 1019448
06:00+8e389477 0.0 1019316
09:00+12ese5107515 0.0 1019768
12:00+14se497252 0.0 10171057
15:00+14se4979100 0.9 1015943
18:00+13sse3884100 0.5 1014540
21:00+9sse229699 0.6 101433
14 may, fri
fri1400:00+7s279614 0.0 1015147
03:00+6s25965 0.0 101693
06:00+6sse279431 0.0 1016186
09:00+12sse3672100 0.0 1016489
12:00+16sse4657100 0.0 10151003
15:00+16sse3670100 0.7 1014749
18:00+18e48717 0.4 10121080
21:00+14ese41091100 0.4 1010372
15 may, sat
sat1500:00+13ese399979 0.4 1010256
03:00+11se259973 0.4 1009114
06:00+12se2698100 0.0 1009158
09:00+16s368550 0.5 1008427
12:00+20s466438 1.5 10071216
15:00+21ssw466087 2.6 10071171
18:00+19sw3675100 0.8 1006853
21:00+13sw2695100 1.6 1007135
16 may, sun
sun1600:00+12sw2896100 0.0 1008193
03:00+11sw2698100 0.1 1009150
06:00+11ssw279718 0.0 1010223
09:00+15sw467865 0.1 1010655
12:00+17wsw457373 2.4 10111114
15:00+17w467321 4.7 10121114
18:00+17w3573100 0.5 1012842
21:00+13wnw119216 0.6 101410